Retour au catalogue

STARLINK-4475

ActifCommunicationsVLEO
NORAD 53545·PAYLOAD·🇺🇸 United States

Lancé Aug 19, 2022 depuis Cape Canaveral Space Force Station

Loading…

Prochains Passages (prochaines 24 heures)

TLE

FraisSource: CelesTrak SupGP

Époque: Sep 15, 2026, 01:55 UTC

1 53545C 22101U   26258.08034722  .00010382  00000+0  30672-3 0  2589
2 53545  53.1588 279.0055 0001291  85.1141  43.6657 15.34387136    18

Suivez STARLINK-4475 en temps réel avec AllMySat

Download on the App Store